Flag for Canada Weather past 2 weeks in Saguenay, Quebec, Canada

Now
62 °F

Cool.


Feels Like: 62 °F
Forecast: N/A
Wind: 5 mph from South

Location: Jonquiere Airport

Current Time: Aug 29, 2015 at 5:48:12 PM

Latest Report: Aug 29, 2015 at 5:00 PM


Visibility: N/A

Pressure: 30.00 "Hg

Humidity: 99%

Dew point: 62 °F

Location of SaguenayLocation

Historic Weather in Saguenay — Graph

°F

Saguenay temperature yesterday

Maximum temperature yesterday: 72 °F (at 2:00 PM)
Minimum temperature yesterday: 53 °F (at 7:00 AM)
Average temperature yesterday: 63 °F

Past Weeks' High & Low Weather Summary

 TemperatureHumidityPressure
High89 °F (Aug 20, 4:00 PM)100% (Aug 15, 8:00 AM)30.19 "Hg (Aug 15, 8:00 AM)
Low53 °F (Aug 28, 7:00 AM)39% (Aug 20, 4:00 PM)29.84 "Hg (Aug 24, 5:00 PM)
Average68 °F78%29.99 "Hg
* Reported Aug 14 4:00 PM — Aug 29 4:00 PM, Saguenay, Weather by CustomWeather, © 2015

Note: Actual official high and low records may vary slightly from our data, if they occured in-between our weather recording intervals... More about our weather records

Advertising

Saguenay weather history for previous 24 hours

 ConditionsComfort  
Time TempWeatherWind HumidityBarometerVisibility
4:00 PM
Sat, Aug 29
65 °FMild.1 mph85%30.00 "HgN/A
3:00 PM63 °FMild.2 mph91%30.01 "HgN/A
2:00 PM65 °FMild.1 mph84%30.02 "HgN/A
1:00 PM65 °FMild.3 mph85%30.02 "HgN/A
12:00 PM63 °FMild.1 mph85%30.03 "HgN/A
11:00 AM62 °FCool.5 mph92%30.04 "HgN/A
10:00 AM60 °FCool.5 mph92%30.03 "HgN/A
9:00 AM59 °FCool.3 mph91%30.04 "HgN/A
8:00 AM59 °FCool.3 mph94%30.06 "HgN/A
7:00 AM56 °FCool.1 mph94%30.06 "HgN/A
6:00 AM56 °FCool.1 mph93%30.05 "HgN/A
5:00 AM56 °FCool.5 mph92%30.04 "HgN/A
4:00 AM57 °FCool.2 mph89%30.05 "HgN/A
3:00 AM58 °FCool.3 mph89%30.06 "HgN/A
2:00 AM59 °FCool.6 mph85%30.07 "HgN/A
1:00 AM60 °FCool.12 mph81%30.08 "HgN/A
12:00 AM61 °FCool.9 mph80%30.08 "HgN/A
11:00 PM
Fri, Aug 28
60 °FCool.9 mph82%30.07 "HgN/A
10:00 PM62 °FCool.7 mph71%30.06 "HgN/A
9:00 PM62 °FMild.8 mph81%30.06 "HgN/A
8:00 PM62 °FCool.6 mph81%30.04 "HgN/A
7:00 PM68 °FMild.7 mph63%30.03 "HgN/A
6:00 PM70 °FMild.9 mph62%30.03 "HgN/A
5:00 PM70 °FMild.6 mph61%30.01 "HgN/A
Weather by CustomWeather, © 2015

See weather overviewHow to use our weather pages